SCP
0 0 0 0 0 0 0 0 0 0 0 0 0 0 0 0 0 0 0 0 0 0 0 0 0 0 0 0 0 0 1 1 1 1 1 1 1 1
0 0 0 0 0 0 0 0 0 0 0 0 0 0 0 0 0 0 0 0 0 0 0 0 0 0 0 0 0 0 0 0 1 1 1 1 1 1
0 0 0 0 0 0 0 0 0 0 0 0 0 0 0 0 0 0 0 0 0 0 0 0 0 0 0 0 0 0 0 0 0 0 0 1 1 1
0 0 0 0 0 0 0 0 0 0 0 0 0 0 0 0 0 0 0 0 0 0 0 0 0 0 0 0 0 0 0 0 0 0 0 0 0 0
0 0 0 0 0 0 0 0 0 0 0 0 0 0 0 0 0 0 0 0 0 0 0 0 0 0 0 0 0 0 0 0 0 0 0 0 0 0
0 0 0 0 0 0 0 0 0 0 0 0 0 0 0 0 0 0 0 0 0 0 0 0 0 0 0 0 0 0 0 0 0 0 0 0 0 0
0 0 0 0 0 0 0 0 0 0 0 0 0 0 0 0 0 0 0 0 0 0 0 0 0 0 0 0 0 0 0 0 0 0 0 0 0 0
0 0 0 0 0 0 0 0 0 0 0 0 0 0 0 0 0 0 0 0 0 0 0 0 0 0 0 0 0 0 0 0 0 0 0 0 0 0
0 0 0 0 0 0 0 0 0 0 0 0 0 0 0 0 0 0 0 0 0 0 0 0 0 0 0 0 0 0 0 0 0 0 0 0 0 0
0 0 0 0 0 0 0 0 0 0 0 0 0 0 0 0 0 0 0 0 0 0 0 0 0 0 0 0 0 0 0 0 0 0 0 0 0 0
0 0 0 0 0 0 0 0 0 0 0 0 0 0 0 0 0 0 0 0 0 0 0 0 0 0 0 0 0 0 0 0 0 0 0 0 0 0
0 0 0 0 0 0 0 0 0 0 0 0 0 0 0 0 0 0 0 0 0 0 0 0 0 0 0 0 0 0 0 0 0 0 0 0 0 0
0 0 0 0 0 0 0 0 0 0 0 0 0 0 0 0 0 0 0 0 0 0 0 0 0 0 0 0 0 0 0 0 0 0 0 0 0 0
0 0 0 0 0 0 0 0 0 0 0 0 0 0 0 0 0 0 0 0 0 0 0 0 0 0 0 0 0 0 0 0 0 0 0 0 0 0
0 0 0 0 0 0 0 0 0 0 0 0 0 0 0 0 0 0 0 0 0 0 0 0 0 0 0 0 0 0 0 0 0 0 0 0 0 0
0 0 0 0 0 0 0 0 0 0 0 0 0 0 0 0 0 0 0 0 0 0 0 0 0 0 0 0 0 0 0 0 0 0 0 0 0 0
0 0 0 0 0 0 0 0 0 0 0 0 0 0 0 0 0 0 0 0 0 0 0 0 0 0 0 0 0 0 0 0 0 0 0 0 0 0
0 0 0 0 0 0 0 0 0 0 0 0 0 0 0 0 0 0 0 0 0 0 0 0 0 0 0 0 0 0 0 0 0 0 0 0 0 0
0 0 0 0 0 0 0 0 0 0 0 0 0 0 0 0 0 0 0 0 0 0 0 0 0 0 0 0 0 0 0 0 0 0 0 0 0 0
0 0 0 0 0 0 0 0 0 0 0 0 0 0 0 0 0 0 0 0 0 0 0 0 0 0 0 0 0 0 0 0 0 0 0 0 0 0
0 0 0 0 0 0 0 0 0 0 0 0 0 0 0 0 0 0 0 0 0 0 0 0 0 0 0 0 0 0 0 0 0 0 0 0 0 0
0 0 0 0 0 0 0 0 0 0 0 0 0 0 0 0 0 0 0 0 0 0 0 0 0 0 0 0 0 0 0 0 0 0 0 0 0 0
0 0 0 0 0 0 0 0 0 0 0 0 0 0 0 0 0 0 0 0 0 0 0 0 0 0 0 0 0 0 0 0 0 0 0 0 0 0
Wind_Speed
2 2 2 1 2 2 2 2 3 1 2 3 2 2 2 1 2 2 2 5 7 8 8 9 9 9 9 9 10 10 11 12 12 13 14 15 16 17
1 2 2 1 2 2 2 2 2 3 1 2 2 2 2 2 3 2 4 6 7 8 9 10 11 11 11 11 11 11 11 11 12 12 13 14 14 15
1 2 1 1 1 1 1 2 1 2 1 3 2 2 2 3 3 3 3 3 4 8 10 10 11 11 11 11 12 12 12 12 12 12 13 13 13 14
1 1 1 1 1 1 1 1 0 1 2 2 2 2 3 3 3 3 3 3 3 7 9 10 10 10 10 11 11 12 12 12 12 12 13 13 14 15
2 2 2 1 1 1 1 1 1 0 1 1 2 2 2 2 2 3 3 3 4 5 7 8 9 9 10 10 11 11 12 12 13 13 13 13 14 15
2 3 3 3 3 3 2 2 1 0 0 1 2 2 2 3 1 2 3 3 4 4 5 5 6 8 10 10 11 12 12 13 13 14 14 14 14 15
2 2 3 4 6 5 3 3 3 2 1 1 2 2 2 2 2 2 2 3 4 3 3 3 3 4 5 8 10 12 13 13 14 14 15 15 15 15
3 3 4 4 5 7 8 7 7 5 4 3 3 3 5 4 3 2 2 2 4 3 1 4 3 4 5 5 9 12 13 14 14 14 15 15 16 16
4 4 4 4 4 3 5 6 7 9 9 6 5 6 5 5 3 3 3 4 5 4 1 5 4 5 6 7 12 13 14 14 14 14 15 15 15 15
5 5 5 5 5 5 4 4 5 6 7 7 7 8 8 7 6 5 5 4 5 4 3 4 5 5 6 6 10 13 14 14 14 14 14 14 15 15
5 5 6 6 9 8 5 5 6 6 8 10 11 11 12 12 8 3 3 3 5 5 3 4 4 4 5 6 8 11 12 13 13 13 13 14 14 13
4 5 7 8 9 9 6 5 7 8 6 5 6 8 8 10 11 8 6 5 5 5 4 4 4 2 4 4 4 4 5 9 12 13 13 14 13 7
4 4 5 8 9 10 8 7 10 8 4 5 5 6 6 6 6 7 7 7 7 7 6 4 4 3 4 4 4 4 4 5 5 7 10 13 13 10
6 5 5 8 9 10 8 10 12 8 4 4 5 6 6 7 7 6 8 9 10 11 8 6 5 5 4 5 6 4 4 5 5 6 6 8 11 13
6 8 8 9 8 8 11 12 9 4 4 5 7 7 7 7 6 5 6 6 8 10 10 9 8 7 6 7 7 6 5 5 5 6 5 5 5 5
7 7 9 9 8 9 8 7 5 5 5 6 6 7 5 4 5 5 5 4 5 7 8 9 9 9 8 9 8 8 6 5 4 5 5 6 5 5
4 2 3 3 4 4 5 5 5 4 6 6 6 6 6 6 6 5 4 4 4 6 7 5 6 7 9 8 7 8 8 7 7 6 5 6 7 7
5 3 4 5 6 6 6 6 5 6 6 6 6 6 6 6 6 5 4 5 6 7 7 6 4 3 3 5 10 9 8 8 7 6 5 6 8 7
4 5 5 6 6 6 6 6 6 6 6 6 6 6 6 6 5 6 5 5 6 7 7 5 4 4 5 8 7 9 8 7 5 5 5 6 7 7
5 6 6 6 6 6 6 6 6 6 5 5 6 6 6 5 5 5 5 6 6 6 6 5 5 6 7 8 6 6 9 8 6 6 6 5 6 8
6 6 6 6 6 6 6 6 6 6 6 5 5 6 5 5 5 5 6 8 7 6 7 7 7 9 5 3 4 6 6 9 10 7 5 4 5 4
6 6 6 6 6 6 5 5 5 5 6 5 5 5 5 4 5 6 6 5 5 6 7 7 6 3 3 5 7 8 7 6 8 12 13 10 5 5
6 6 6 6 6 5 5 5 6 5 5 5 5 4 4 4 4 5 5 5 5 6 6 5 4 3 5 6 7 7 8 8 5 4 6 10 15 16
Wind_Direction
82 82 77 42 53 72 104 131 137 122 310 305 321 322 312 271 242 224 239 244 240 241 243 246 248 249 250 250 250 251 250 248 247 245 245 242 239 237
100 84 71 52 48 55 77 93 127 149 211 277 276 287 304 299 255 247 253 257 253 250 250 251 251 251 250 250 249 248 247 248 248 246 244 244 242 241
87 103 90 86 66 42 62 75 90 128 172 282 284 295 309 307 306 289 276 265 266 263 260 258 259 259 256 253 251 249 247 248 248 247 245 244 244 244
163 120 117 111 80 58 70 66 76 148 164 263 300 309 296 288 287 289 285 276 267 271 266 262 260 259 258 257 254 251 249 250 250 249 247 245 245 246
183 179 199 161 182 215 184 195 238 181 153 197 271 286 291 299 311 304 299 298 289 280 272 267 265 266 264 260 256 253 252 251 251 250 250 249 248 248
195 198 204 197 207 211 212 216 210 219 229 225 271 289 293 301 324 308 312 307 299 299 293 286 280 278 272 269 263 258 254 251 250 250 250 250 249 248
233 237 232 226 220 209 204 205 195 200 223 246 267 286 290 301 290 277 285 299 294 279 291 292 293 288 283 275 269 262 256 253 250 249 248 248 249 249
225 251 258 253 242 234 232 218 201 199 212 220 238 247 260 255 255 259 266 303 299 284 283 287 276 276 274 265 263 261 258 256 253 251 248 247 247 247
221 234 249 243 234 235 251 252 241 235 220 206 225 239 245 242 239 259 251 242 249 257 261 279 276 274 271 271 266 265 263 260 257 255 251 248 247 247
229 227 232 248 243 228 234 250 255 254 241 227 226 239 242 241 228 234 246 259 265 263 212 256 271 268 276 272 269 266 265 262 259 257 256 253 251 249
246 239 229 237 246 235 226 245 264 271 262 245 236 243 249 250 242 234 248 254 275 276 217 218 259 271 275 272 270 267 265 267 266 262 258 256 254 252
255 253 242 239 246 238 220 226 249 261 266 278 272 269 262 262 252 226 223 231 248 268 244 207 246 263 290 274 269 271 270 269 267 264 260 258 255 248
240 247 247 246 248 244 230 224 239 249 257 259 270 276 274 264 254 233 219 218 229 245 238 198 232 227 232 275 283 265 257 263 267 264 260 256 251 232
231 237 242 250 251 252 242 242 250 256 251 258 265 269 268 266 260 248 236 229 231 240 246 213 224 231 243 264 273 273 263 254 252 259 259 258 252 241
236 239 245 254 260 259 253 254 255 239 232 246 256 260 255 256 261 264 261 248 246 249 251 236 232 241 233 249 261 263 273 271 251 250 255 250 248 239
242 255 261 262 257 255 261 260 238 222 222 238 250 258 262 263 260 255 261 263 266 271 257 242 235 233 243 248 252 262 256 255 264 254 253 258 253 240
205 236 250 257 261 260 258 256 246 231 232 240 247 258 261 262 264 257 250 250 249 265 277 273 247 235 235 240 251 256 258 257 256 258 251 261 261 248
180 223 238 243 248 252 255 258 249 240 236 236 240 244 250 254 261 261 249 248 254 259 261 265 272 284 281 257 230 246 254 255 257 248 233 249 266 259
195 229 238 243 246 248 248 249 252 249 240 234 237 240 243 248 251 256 255 253 255 258 259 256 243 236 260 274 266 228 234 252 255 254 242 237 254 261
220 232 239 243 245 248 251 251 253 256 247 241 242 243 242 244 249 252 254 253 256 260 265 259 242 231 236 253 263 261 232 232 241 252 257 254 255 262
226 232 237 241 244 247 250 251 250 250 250 245 243 243 244 243 249 252 255 259 257 260 261 261 254 248 244 251 270 270 260 235 229 234 242 251 263 269
237 237 239 240 243 244 246 249 251 253 255 249 247 245 244 242 249 256 257 261 261 258 260 265 268 260 224 238 258 267 273 275 254 243 238 227 224 238
236 239 242 244 245 244 245 247 249 251 249 248 248 249 249 248 250 252 259 261 261 263 266 271 269 254 247 243 253 264 271 275 274 274 267 250 241 246